www.pogodaiklimat.ru

Погода и климат >> Архив погоды >> Индонезия >> Нангапинох


ПОГОДА в Нангапинохе

  • Прогноз погоды в Нангапинохе
  • Монитор погоды в Нангапинохе

АРХИВ ПОГОДЫ в Нангапинохе

Время (UTC), дата Ветер
(напр.,м/с)
 
Видим.   Явления Облачность Т
(С)
Тd
(С)
f
(%)
Тe
(С)
Тes
(С)
Комфортность P
(гПа)
Po
(гПа)
Тmin
(С)
Tmax
(С)
R
(мм)
R24
(мм)
S
(см)
00 12.06 Ю 2 1000 м слаб. дождь 10/8
[Cu Sc As op]
+23.4 +23.4 100 +33 +33 очень
душно
1012.9 1008.3 +23.4 11
03 12.06 штиль 0 1000 м слаб. дождь 10/8
[Cu Sc As op]
+24.0 +23.7 98 +33 +33 очень
душно
1013.2 1008.5 9
06 12.06 ЮВ 4 2000 м в посл. час дождь 10/8
[Cu Sc As op]
+27.0 +24.7 87 +38 +39 очень
душно
1011.1 1006.5 0.5
09 12.06 Ю 2 8000 м {дождь} 10/6
[Cb cap As op]
+27.0 +24.5 86 +38 +38 очень
душно
1008.4 1003.7 0.0
12 12.06 штиль 0 5000 м слаб. дождь 10/6
[Cb cap As op]
+25.9 +25.0 95 +37 +37 очень
душно
1010.6 1005.9 +29.0 0.0
15 12.06 Ю 1 1000 м дымка {дождь} 9/6
[Cb cap As op]
+25.1 +24.6 97 +35 +35 очень
душно
1012.2 1007.6 0.0
00 13.06 штиль 0 1000 м слаб. дождь 10/8 300 м
[Cu Sc As op]
+24.4 +24.2 99 +34 +34 очень
душно
1012.4 1007.8 +22.8 2
03 13.06 штиль 0 4000 м мгла {дождь} 10/8 300 м
[Cu Sc As op]
+27.2 +24.3 84 +38 +39 очень
душно
1013.0 1008.3 0.0
06 13.06 С 2 1000 м осадки на расстоянии 9/8 300 м
[Cb cap As op]
+29.9 +10.4 30 +30 +32 жарко 1010.4 1005.6 0.0
09 13.06 Ю 3 3000 м слаб. дождь 10/6
[Cb cap As op]
+26.8 +25.4 92 +39 +39 очень
душно
1009.2 1004.5 15
12 13.06 СЗ 2 5000 м мгла {дождь} 10/6
[Cb cap As op]
+27.1 +25.7 92 +40 +40 очень
душно
1011.6 1006.9 +30.4 0.0
15 13.06 Ю 2 2000 м дымка {дождь} 10/6
[Cb cap As op]
+23.2 +22.6 96 +32 +32 очень
душно
1013.7 1009.0 12
00 14.06 В 2 10 км 8/6 300 м
[Cu med, cong As op Ci fib]
+22.8 +22.2 96 +31 +32 очень
душно
1011.9 1007.2 +22.7 1
03 14.06 Ю 2 10 км 9/6 300 м
[Cu med, cong Ac As Ci fib]
+26.9 +23.5 82 +37 +41 очень
душно
1012.1 1007.5
06 14.06 З 1 10 км 9/6 300 м
[Cu med, cong Ac As Ci fib]
+30.7 +23.9 67 +42 +47 опасность
перегрева
1009.0 1004.3
09 14.06 ЮЗ 2 10 км 8/6 300 м
[Cu med, cong As op Ci fib]
+32.2 +24.2 63 +44 +45 опасность
перегрева
1007.0 1002.4
12 14.06 С 2 6000 м 8/3 300 м
[Cu med, cong Ac As Ci fib]
+29.0 +25.6 82 +43 +43 опасность
перегрева
1009.3 1004.6 +32.6
15 14.06 ЮЗ 1 6000 м 6/3 300 м
[Cu med, cong As trans Ci fib]
+26.0 +24.6 92 +37 +37 очень
душно
1011.4 1006.7
00 15.06 штиль 0 10 км 8/4 300 м
[Cu med, cong Ac As Ci fib]
+24.8 +24.3 97 +34 +36 очень
душно
1011.3 1006.6 +22.8
03 15.06 ЮВ 2 10 км 8/5 300 м
[Cu med, cong As trans Ci fib]
+30.0 +24.8 74 +43 +49 опасность
перегрева
1011.5 1006.8
06 15.06 ЮЗ 1 10 км 8/6 300 м
[Cb calv As trans Ci fib]
+33.6 +24.1 58 +46 +51 опасность
перегрева
1008.6 1004.0
09 15.06 ЮЗ 4 8000 м осадки на расстоянии 9/6 300 м
[Cb cap As op Ci fib]
+33.2 +24.8 61 +46 +47 опасность
перегрева
1007.3 1002.6
12 15.06 СВ 1 5000 м мгла 10/6
[Cb cap As op]
+27.8 +24.9 84 +40 +40 очень
душно
1010.0 1005.3 +35.8
15 15.06 ЮВ 2 2000 м мгла 10/6
[Cb cap As op]
+26.1 +24.1 89 +36 +36 очень
душно
1011.6 1007.0
00 16.06 ЮВ 2 6000 м 9/3 300 м
[Cu med, cong Ac cuf Ci fib]
+24.8 +23.9 95 +34 +35 очень
душно
1011.8 1007.2 +24.0
03 16.06 Ю 2 10 км 9/4 300 м
[Cu med, cong Ac As Ci fib]
+29.0 +24.7 78 +41 +47 опасность
перегрева
1011.9 1007.3
06 16.06 СВ 2 10 км 8/5 300 м
[Cu med, cong Ac As Ci fib]
+33.4 +23.6 57 +45 +50 опасность
перегрева
1009.6 1005.0
09 16.06 СЗ 2 10 км 8/6 300 м
[Cu med, cong As op Ci fib]
+34.7 +23.8 53 +46 +47 опасность
перегрева
1007.7 1003.1
12 16.06 СВ 2 6000 м слаб. дождь 10/6
[Cb cap As op]
+27.9 +23.8 78 +38 +38 очень
душно
1010.2 1005.3 +35.2 0.0
15 16.06 ЮВ 1 1000 м слаб. дождь 10/6
[Cb cap As op]
+24.6 +24.0 96 +34 +34 очень
душно
1012.5 1007.8 8
00 17.06 штиль 0 4000 м мгла 9/6 300 м
[Cu med, cong Ac As]
+24.4 +23.4 94 +33 +33 очень
душно
1011.4 1006.7 +23.9 0.5
03 17.06 Ю 2 10 км 8/6 300 м
[Cu med, cong Ac As Ci fib]
+28.4 +23.7 76 +39 +44 очень
душно
1012.3 1007.6
06 17.06 Ю 2 10 км 8/6 300 м
[Cb calv As op Ci fib]
+31.0 +24.2 67 +43 +48 опасность
перегрева
1009.9 1005.3
09 17.06 Ю 2 10 км 8/5 300 м
[Cb calv As op Ci fib]
+32.4 +23.7 60 +44 +45 опасность
перегрева
1008.4 1003.7
12 17.06 штиль 0 5000 м мгла 9/5 300 м
[Cb calv As op Ci fib]
+29.2 +25.5 80 +43 +43 опасность
перегрева
1010.2 1005.5 +33.5
15 17.06 штиль 0 3000 м мгла 8/6 300 м
[Cb calv As op Ci fib]
+27.4 +25.4 89 +40 +40 очень
душно
1012.0 1007.3
00 18.06 штиль 0 10 км 10/6 300 м
[Cu med, cong As op]
+25.2 +24.6 96 +35 +36 очень
душно
1011.9 1007.3 +24.5
03 18.06 СВ 2 10 км 9/6 300 м
[Cu med, cong Ac As Ci fib]
+30.6 +24.7 71 +43 +47 опасность
перегрева
1011.1 1006.4
06 18.06 СВ 2 10 км 9/6 300 м
[Cu med, cong Ac As Ci fib]
+33.1 +24.0 59 +45 +49 опасность
перегрева
1008.9 1004.2
09 18.06 СВ 1 10 км 8/5 300 м
[Cb calv Ac As Ci fib]
+33.2 +24.3 60 +46 +47 опасность
перегрева
1007.4 1002.7
12 18.06 СВ 2 4000 м мгла 9/6 300 м
[Cb cap As op Ci fib]
+27.4 +23.3 78 +37 +37 очень
душно
1008.9 1004.2 +34.0
15 18.06 Ю 2 2000 м слаб. дождь 10/6 300 м
[Cb cap As op]
+25.0 +23.8 93 +34 +34 очень
душно
1011.1 1006.4 3

 

Местоположение метеостанции Нангапинох (Индонезия): широта -0.35 долгота 111.78 высота над уровнем моря 37 м.

В архиве по умолчанию представлена погода в Нангапинохе за последнюю неделю. Архивные данные за месяц целиком и за предыдущие месяцы, начиная с января 2011 года, Вы можете получить, выбрав интересующий диапазон дат из раскрывающегося списка и нажав кнопку "Ввод!".


*Определитесь, кто Вы:
робот инопланетянин человек

Внимание! Время в таблицах - всемирное. Для получения местного времени необходимо прибавить поправку, которая равна 7 ч.

Смотрите также архив погоды в соседних городах и на ближайших метеорологических станциях:

Погода в Синтанге (Индонезия) (59 км)
Погода на Путусиббау (Индонезия) (185 км)
Погода в Паоанкарая (Индонезия) (257 км)
Погода в Кучинге (Малайзия) (260 км)
Погода в Пангкалан-Буне (Индонезия) (262 км)
Погода в Кетапанге (Индонезия) (262 км)
Погода в Понтианаке (Индонезия) (266 км)
Погода в Сибу (Малайзия) (298 км)
Погода в Муаратевехе (Индонезия) (353 км)
Погода в Парохе (Индонезия) (363 км)

Пояснения к столбцам:

Ветер - указаны скорость ветра в м/с - средняя за 10 мин, порывы в срок и между сроками (в фигурных скобках) и направление, откуда дует ветер: С - северный, СВ - северо-восточный, В - восточный, ЮВ - юго-восточный, Ю - южный, ЮЗ - юго-западный, З - западный, СЗ - северо-западный.
Видимость - горизонтальная дальность видимости в метрах или километрах. При видимости от 1 до 10 км при отсутствии осадков обычно наблюдается дымка, при ухудшении видимости до 1 км и менее - туман. В сухую погоду видимость может ухудшаться дымом, пылью или мглою.
Явления - указаны атмосферные явления, наблюдавшиеся в срок или в последний час перед сроком; фигурными скобками обозначены явления, наблюдавшиеся между сроками (за 1-3 часа до срока); квадратными скобками обозначены град или гололедные отложения с указанием их диаметра в мм.
Облачность - указаны через наклонную черту общая и нижняя облачность в баллах и высота нижней границы облаков в метрах; квадратными скобками обозначены формы облаков: Ci - перистые, Cs - перисто-слоистые, Cc - перисто-кучевые, Ac - высококучевые, As - высокослоистые, Sc - слоисто-кучевые, Ns - слоисто-дождевые, Cu - кучевые, Cb - кучево-дождевые. Подробнее классификацию облаков см. в Атласе облаков (PDF).
T - Температура воздуха - температура, измеренная на высоте 2 м над землей.
Td - Температура точки росы - температура, при понижении до которой содержащийся в воздухе водяной пар достигнет насыщения.
f - Относительная влажность воздуха - влажноcть воздуха, измеренная на высоте 2 м над землей.
Te - Эффективная температура - температура, которую ощущает одетый по сезону человек в тени. Характеристика душности погоды. При расчете учитывается влияние влажности воздуха и скорости ветра на теплоощущения человека.
Tes - Эффективная температура на солнце - температура, которую ощущает человек, с поправкой на солнечный нагрев. Характеристика знойности погоды. Зависит от высоты солнца над горизонтом, облачности и скорости ветра. Ночью, в пасмурную погоду, а также при ветре 12 м/с и более поправка равна нулю.
P - Атмосферное давление - приведенное к уровню моря атмосферное давление.
Po - Атмосферное давление - измеренное на уровне метеостанции атмосферное давление.
Tmin - Минимальная температура - минимум температуры воздуха на высоте 2 м над землей.
Tmax - Максимальная температура - максимум температуры воздуха на высоте 2 м над землей.
R - Количество осадков - Количество выпавших осадков за период времени, мм. При наведении курсора мыши на число - период времени, за который выпало указанное количество осадков.
R24 - Количество осадков - Количество выпавших осадков за 24 часа, мм.
S - Снежный покров - Высота снежного покрова, см. При наведении курсора мыши на число - состояние снежного покрова и степень покрытия местности в баллах.